Location: Unspecified
(0.0000°N, 0.0000°E)
Time: 06:39:13
(UTC+00:00)

Courier 1B - Pass Details

Date: 29 September 2023
Orbit: 962 x 1208 km, 28.3° (Epoch: 06 December)

Event Time Altitude Azimuth Distance (km) Brightness Sun altitude
Rises 09:56:07 0° 264° (W) 3,821 10.3 61.3°
Reaches altitude 10° 09:59:09 10° 275° (W) 2,906 9.8 62.1°
Maximum altitude 10:05:15 30° 333° (NNW) 1,890 9.3 63.6°
Drops below altitude 10° 10:11:40 10° 32° (NNE) 3,054 10.4 65.2°
Sets 10:14:58 0° 42° (NE) 4,046 10.9 66.0°
